Regional Weather Roundup
Issued by NWS

Home | Current Version | Previous Version | Text Only | Print | Product List | Glossary On
Versions: 1 2 3 4 5 6 7 8 9 10 11 12 13 14 15 16 17 18 19 20 21 22 23 24 25 26 27 28 29 30 31 32 33 34 35 36 37 38 39 40 41 42 43 44 45 46 47 48 49 50
000
ASUS43 KTOP 030959
RWRKS

WEATHER ROUNDUP FOR KANSAS
NATIONAL WEATHER SERVICE GOODLAND KS
400 AM CST SAT DEC 03 2016

NOTE:  "FAIR" INDICATES FEW OR NO CLOUDS BELOW 12,000 FEET WITH NO
SIGNIFICANT WEATHER AND/OR OBSTRUCTIONS TO VISIBILITY.

KSZ001>006-013>018-027>032-041>047-031100-
NORTHWEST KANSAS

CITY           SKY/WX    TMP DP  RH WIND       PRES   REMARKS
GOODLAND       PTCLDY    27  18  69 S6        30.17F
HAYS           CLOUDY    34  26  72 CALM      30.25F
HILL CITY      CLOUDY    30  25  81 CALM      30.24F
RUSSELL        CLOUDY    32  26  78 CALM      30.24F
$$

KSZ061>065-074>080-084>089-031100-
SOUTHWEST KANSAS

CITY           SKY/WX    TMP DP  RH WIND       PRES   REMARKS
DODGE CITY     LGT SNOW  33  32  96 NW3       30.23F FOG
ELKHART          N/A     31  25  79 CALM        N/A
GARDEN CITY    FLURRIES  34  27  75 SE5       30.21
GREAT BEND     CLOUDY    35  26  69 SE3       30.25F
LIBERAL        CLOUDY    34  28  80 N6        30.21F
$$

KSZ066>073-081>083-090>101-031100-
SOUTHEAST KANSAS

CITY           SKY/WX    TMP DP  RH WIND       PRES   REMARKS
CHANUTE        MOCLDY    42  27  55 E9        30.25F
COFFEYVILLE    CLOUDY    45  30  55 E6        30.24
HUTCHINSON     CLOUDY    38  27  64 NE3       30.25
MEDICINE LODGE   N/A     38  30  73 NE6       30.22F
NEWTON         CLOUDY    36  27  69 E8        30.25F
PARSONS        CLOUDY    44  29  55 NE6       30.25
WICHITA INTL   CLOUDY    43  27  53 NE6       30.24F
WICHITA JABRA  CLOUDY    39  29  67 NE6       30.24F
WINFIELD       CLOUDY    43  28  55 NE5       30.24
$$

KSZ007>012-019>026-033>040-048>060-102>105-031100-
NORTHEAST KANSAS

CITY           SKY/WX    TMP DP  RH WIND       PRES   REMARKS
CONCORDIA      MOCLDY    28  25  88 E3        30.28F
EMPORIA        CLOUDY    36  28  73 NE6       30.27F
LAWRENCE       PTCLDY    30  27  88 CALM      30.32F
MANHATTAN      CLOUDY    32  27  81 NE7       30.30F
OLATHE IND     PTCLDY    33  28  81 NE5       30.31F
OLATHE EXE     CLOUDY    34  27  75 NE7       30.31F
SALINA         CLOUDY    35  27  72 NE3       30.28F
TOPEKA BILLARD PTCLDY    29  23  78 CALM      30.32F
TOPEKA FORBES  PTCLDY    30  26  85 N5        30.30F
$$



USA.gov is the U.S. government's official web portal to all federal, state and local government web resources and services.